This is the latest recevied weather packets stored in our database for station/object OE-11053. If no packets are shown the sender has not sent any weather packets the latest 10 day(s).
| Time | Temp. | Humidity | Pressure | Rain* | Wind** | Luminosity | Snow |
|---|---|---|---|---|---|---|---|
| 1787845295 | 28.89° C | 45% | 1011.9 hPa | 0 mm | - | 198 W/m² | - |
| 1787844923 | 28.89° C | 43% | 1012 hPa | 0 mm | - | 256 W/m² | - |
| 1787844323 | 29.44° C | 44% | 1011.9 hPa | 0 mm | - | 358 W/m² | - |
| 1787843496 | 29.44° C | 45% | 1012.1 hPa | 0 mm | - | 371 W/m² | - |
| 1787843123 | 29.44° C | 45% | 1012.2 hPa | 0 mm | - | 409 W/m² | - |
| 1787842523 | 29.44° C | 45% | 1012.2 hPa | 0 mm | - | 435 W/m² | - |
| 1787841695 | 29.44° C | 44% | 1012.2 hPa | 0 mm | - | 454 W/m² | - |
| 1787841323 | 29.44° C | 46% | 1012.2 hPa | 0 mm | - | 486 W/m² | - |
| 1787839896 | 28.89° C | 46% | 1012.3 hPa | 0 mm | - | 492 W/m² | - |
| 1787839523 | 28.89° C | 46% | 1012.3 hPa | 0 mm | - | 556 W/m² | - |
| 1787838923 | 28.89° C | 46% | 1012.6 hPa | 0 mm | - | 595 W/m² | - |
| 1787838096 | 28.89° C | 47% | 1012.7 hPa | 0 mm | - | 595 W/m² | - |
| 1787837723 | 28.89° C | 47% | 1012.7 hPa | 0 mm | - | 627 W/m² | - |
| 1787837123 | 28.33° C | 48% | 1012.7 hPa | 0 mm | - | 614 W/m² | - |
| 1787836296 | 28.33° C | 48% | 1012.7 hPa | 0 mm | - | 665 W/m² | - |
| 1787835922 | 27.78° C | 49% | 1012.8 hPa | 0 mm | - | 633 W/m² | - |
| 1787835323 | 27.78° C | 49% | 1012.9 hPa | 0 mm | - | 582 W/m² | - |
| 1787834496 | 27.22° C | 49% | 1013.2 hPa | 0 mm | - | 569 W/m² | - |
| 1787834122 | 27.78° C | 50% | 1013.2 hPa | 0 mm | - | 646 W/m² | - |
| 1787833523 | 27.22° C | 50% | 1013.4 hPa | 0 mm | - | 697 W/m² | - |
| 1787832696 | 27.22° C | 51% | 1013.4 hPa | 0 mm | - | 697 W/m² | - |
| 1787832323 | 27.22° C | 52% | 1013.6 hPa | 0 mm | - | 710 W/m² | - |
| 1787831722 | 26.67° C | 53% | 1013.5 hPa | 0 mm | - | 723 W/m² | - |
| 1787830896 | 26.67° C | 54% | 1013.8 hPa | 0 mm | - | 684 W/m² | - |
| 1787830522 | 26.11° C | 54% | 1013.9 hPa | 0 mm | - | 774 W/m² | - |
* Rain latest hour (hover to see other rain measurements)
** Current wind speed in m/s (hover to see current wind gust speed)